WB4ROX Weather Reports


Display with metric or nautical units.
time (UTC)temp
F
wind
direction
speed
MPH
gust
MPH
rain 1hr
in
rain 24hr
in
rain mn
in
humidity
%
barometer
mb
20260508154258 52 103 1.0 2.0 0.00 0.00 0.00 41 1019.3
20260508153754 51 11 2.0 3.0 0.00 0.00 0.00 36 1019.2
20260508153252 50 101 0.0 0.0 0.00 0.00 0.00 40 1019.2
20260508152748 51 273 2.0 2.0 0.00 0.00 0.00 40 1019.2
20260508152244 52 80 0.0 0.0 0.00 0.00 0.00 37 1019.2
20260508151740 51 45 2.0 2.0 0.00 0.00 0.00 36 1019.4
20260508151237 52 126 5.0 6.0 0.00 0.00 0.00 34 1019.4
20260508150734 52 88 0.0 0.0 0.00 0.00 0.00 37 1019.3
20260508150231 51 111 1.0 2.0 0.00 0.00 0.00 39 1019.2
20260508145726 50 71 0.0 0.0 0.00 0.00 0.00 39 1019.3
20260508145223 50 81 0.0 0.0 0.00 0.00 0.00 38 1019.4
20260508144720 49 68 0.0 1.0 0.00 0.00 0.00 39 1019.2
20260508144218 49 78 0.0 0.0 0.00 0.00 0.00 36 1019.4
20260508143715 48 57 1.0 1.0 0.00 0.00 0.00 35 1019.2
20260508143212 49 83 0.0 1.0 0.00 0.00 0.00 37 1019.3
20260508142708 48 110 1.0 1.0 0.00 0.00 0.00 39 1019.2
20260508142205 48 53 2.0 2.0 0.00 0.00 0.00 38 1019.1
20260508141702 47 88 0.0 0.0 0.00 0.00 0.00 37 1019.2
20260508141159 46 87 0.0 0.0 0.00 0.00 0.00 38 1019.3
20260508140657 47 73 2.0 2.0 0.00 0.00 0.00 36 1019.1
20260508140153 47 72 2.0 3.0 0.00 0.00 0.00 37 1019.2
20260508135649 48 76 1.0 1.0 0.00 0.00 0.00 35 1019.3
20260508135145 47 88 0.0 0.0 0.00 0.00 0.00 32 1019.1
20260508134641 46 79 0.0 0.0 0.00 0.00 0.00 37 1019.3
20260508134139 47 77 0.0 0.0 0.00 0.00 0.00 34 1019.1
20260508133636 47 88 1.0 1.0 0.00 0.00 0.00 32 1019.1
20260508133133 46 85 1.0 1.0 0.00 0.00 0.00 34 1018.9
20260508132631 46 73 2.0 2.0 0.00 0.00 0.00 36 1019.0
20260508132127 46 87 0.0 1.0 0.00 0.00 0.00 39 1018.9
20260508131623 44 97 0.0 0.0 0.00 0.00 0.00 38 1018.9
20260508131120 43 67 1.0 1.0 0.00 0.00 0.00 32 1019.0
20260508130616 43 96 0.0 1.0 0.00 0.00 0.00 31 1018.9
20260508130113 43 85 0.0 0.0 0.00 0.00 0.00 32 1018.9
20260508125614 42 95 1.0 1.0 0.00 0.00 0.00 35 1019.0
20260508125112 41 86 0.0 0.0 0.00 0.00 0.00 37 1018.5
20260508124610 41 63 1.0 1.0 0.00 0.00 0.00 37 1018.6
20260508124106 40 63 0.0 0.0 0.00 0.00 0.00 43 1018.5
20260508123605 40 63 0.0 0.0 0.00 0.00 0.00 48 1018.8
20260508123102 39 63 0.0 0.0 0.00 0.00 0.00 48 1018.6
20260508122558 39 62 1.0 1.0 0.00 0.00 0.00 48 1018.5
20260508122055 39 65 0.0 0.0 0.00 0.00 0.00 58 1018.6
20260508121553 39 65 0.0 0.0 0.00 0.00 0.00 58 1018.4
20260508121051 38 70 0.0 0.0 0.00 0.00 0.00 58 1018.3
20260508120548 38 80 1.0 1.0 0.00 0.00 0.00 61 1018.1
20260508120047 38 55 1.0 1.0 0.00 0.00 0.00 63 1018.3
20260508115544 37 56 1.0 1.0 0.00 0.00 0.00 63 1018.4
20260508115040 37 61 0.0 0.0 0.00 0.00 0.00 65 1018.1
20260508114537 37 91 0.0 0.0 0.00 0.00 0.00 68 1018.2
20260508114033 37 68 0.0 0.0 0.00 0.00 0.00 68 1017.9
20260508113531 37 99 0.0 0.0 0.00 0.00 0.00 70 1018.1
20260508113029 37 66 0.0 0.0 0.00 0.00 0.00 72 1017.6
20260508112525 37 56 0.0 1.0 0.00 0.00 0.00 71 1017.7
20260508112022 36 56 1.0 1.0 0.00 0.00 0.00 72 1017.6
20260508111519 36 62 0.0 0.0 0.00 0.00 0.00 72 1017.3
20260508111015 36 33 2.0 2.0 0.00 0.00 0.00 73 1017.4
20260508110514 36 39 2.0 2.0 0.00 0.00 0.00 74 1017.3
20260508110009 36 68 0.0 1.0 0.00 0.00 0.00 75 1017.3
20260508105504 36 63 0.0 0.0 0.00 0.00 0.00 76 1017.3
20260508105002 36 82 0.0 0.0 0.00 0.00 0.00 76 1017.5
20260508104459 36 32 2.0 3.0 0.00 0.00 0.00 77 1017.3
20260508103956 36 24 2.0 2.0 0.00 0.00 0.00 78 1017.0
20260508103453 35 327 3.0 3.0 0.00 0.00 0.00 79 1016.8
20260508102949 35 59 0.0 0.0 0.00 0.00 0.00 79 1017.0
20260508102448 35 64 0.0 0.0 0.00 0.00 0.00 80 1016.9
20260508101945 35 53 1.0 1.0 0.00 0.00 0.00 80 1016.8
20260508101442 35 39 1.0 1.0 0.00 0.00 0.00 80 1016.8
20260508100939 35 49 1.0 1.0 0.00 0.00 0.00 81 1016.6
20260508100438 35 16 1.0 2.0 0.00 0.00 0.00 81 1016.6
20260508095934 36 67 0.0 0.0 0.00 0.00 0.00 82 1016.4
20260508095432 36 44 1.0 2.0 0.00 0.00 0.00 82 1016.3
20260508094928 36 66 0.0 0.0 0.00 0.00 0.00 81 1016.7
20260508094425 36 308 3.0 3.0 0.00 0.00 0.00 81 1016.3
20260508093922 36 72 0.0 1.0 0.00 0.00 0.00 81 1016.7
20260508093419 36 349 2.0 3.0 0.00 0.00 0.00 82 1016.6
20260508092917 36 38 1.0 1.0 0.00 0.00 0.00 82 1016.6
20260508092415 36 57 1.0 1.0 0.00 0.00 0.00 82 1016.6
20260508091913 36 66 1.0 1.0 0.00 0.00 0.00 83 1016.7
20260508091409 36 303 2.0 3.0 0.00 0.00 0.00 84 1016.4
20260508090907 36 34 3.0 4.0 0.00 0.00 0.00 85 1016.6
20260508090405 36 46 2.0 3.0 0.00 0.00 0.00 85 1016.4
20260508085900 35 64 1.0 1.0 0.00 0.00 0.00 87 1016.7
20260508085357 35 66 0.0 1.0 0.00 0.00 0.00 88 1016.3
20260508084854 35 9 2.0 2.0 0.00 0.00 0.00 89 1016.4
20260508084351 35 1 3.0 4.0 0.00 0.00 0.00 92 1016.4
20260508083849 35 63 0.0 0.0 0.00 0.00 0.00 94 1016.3
20260508083346 35 24 1.0 2.0 0.00 0.00 0.00 96 1016.3
20260508082845 35 65 0.0 1.0 0.00 0.00 0.00 97 1016.3
20260508082343 35 57 1.0 1.0 0.00 0.00 0.00 98 1016.6
20260508081840 35 58 1.0 1.0 0.00 0.00 0.00 99 1016.7
20260508081337 35 27 3.0 3.0 0.00 0.00 0.00 99 1016.6
20260508080834 35 64 2.0 3.0 0.00 0.00 0.00 99 1016.7
20260508080332 35 29 0.0 1.0 0.00 0.00 0.00 99 1016.3
20260508075828 35 56 1.0 1.0 0.00 0.00 0.00 99 1016.3
20260508075325 35 289 3.0 3.0 0.00 0.00 0.00 99 1016.3
20260508074823 35 55 1.0 2.0 0.00 0.00 0.00 99 1016.4
20260508074320 35 335 3.0 4.0 0.00 0.00 0.00 99 1016.4
20260508073817 35 62 1.0 3.0 0.00 0.00 0.00 99 1016.6
20260508073315 36 317 2.0 4.0 0.00 0.00 0.00 99 1016.6
20260508072811 36 41 1.0 2.0 0.00 0.00 0.00 99 1016.6
20260508072308 36 327 3.0 3.0 0.00 0.00 0.00 99 1016.4
20260508071805 36 119 2.0 4.0 0.00 0.00 0.00 99 1016.7
20260508071304 36 35 2.0 2.0 0.00 0.00 0.00 99 1016.4
20260508070800 36 21 3.0 3.0 0.00 0.00 0.00 99 1016.4
20260508070259 36 28 2.0 3.0 0.00 0.00 0.00 99 1016.4
20260508065756 37 62 1.0 1.0 0.00 0.00 0.00 99 1016.6
20260508065254 37 41 1.0 1.0 0.00 0.00 0.00 99 1016.6
20260508064752 37 39 2.0 3.0 0.00 0.00 0.00 99 1016.7
20260508064249 37 48 2.0 2.0 0.00 0.00 0.00 99 1016.8
20260508063746 38 340 4.0 4.0 0.00 0.00 0.00 99 1016.4
20260508063244 38 59 1.0 1.0 0.00 0.00 0.00 99 1016.6
20260508062741 38 47 2.0 3.0 0.00 0.00 0.00 99 1016.7
20260508062239 39 56 2.0 2.0 0.00 0.00 0.00 99 1016.6
20260508061736 39 23 2.0 3.0 0.00 0.00 0.00 99 1016.7
20260508061233 39 30 2.0 3.0 0.00 0.00 0.00 99 1016.6
20260508060729 39 40 2.0 2.0 0.00 0.00 0.00 99 1016.8
20260508060227 39 51 3.0 3.0 0.00 0.00 0.00 99 1016.8
20260508055722 39 79 1.0 2.0 0.00 0.00 0.00 99 1016.8
20260508055219 39 33 2.0 2.0 0.00 0.00 0.00 99 1016.9
20260508054716 39 75 1.0 1.0 0.00 0.00 0.00 99 1016.9
20260508054214 39 230 2.0 3.0 0.00 0.00 0.00 99 1016.9
20260508053710 39 49 2.0 3.0 0.00 0.00 0.00 99 1016.9
20260508053208 40 344 3.0 3.0 0.00 0.00 0.00 99 1016.8
20260508052705 39 314 3.0 4.0 0.00 0.00 0.00 99 1016.8
20260508052202 40 357 2.0 2.0 0.00 0.00 0.00 99 1016.9
20260508051658 40 350 3.0 3.0 0.00 0.00 0.00 99 1016.9
20260508051154 40 46 5.0 7.0 0.00 0.00 0.00 98 1016.9
20260508050650 40 81 1.0 1.0 0.00 0.00 0.00 99 1016.8
20260508050148 40 73 6.0 9.0 0.00 0.00 0.00 98 1016.8
20260508045643 41 41 2.0 2.0 0.00 0.00 0.00 99 1016.4
20260508045141 41 259 5.0 6.0 0.00 0.00 0.00 99 1016.3
20260508044638 41 282 4.0 6.0 0.00 0.00 0.00 98 1016.6
20260508044134 41 296 2.0 6.0 0.00 0.00 0.00 98 1016.3
20260508043631 41 29 3.0 4.0 0.00 0.00 0.00 99 1016.3
20260508043129 41 268 3.0 4.0 0.00 0.00 0.00 99 1016.4
20260508042625 41 29 3.0 4.0 0.00 0.00 0.00 99 1016.6
20260508042123 41 317 3.0 4.0 0.00 0.00 0.00 98 1016.6
20260508041618 41 299 6.0 8.0 0.00 0.00 0.00 98 1016.4
20260508041115 41 267 6.0 8.0 0.00 0.00 0.00 98 1016.3
20260508040612 41 288 4.0 6.0 0.00 0.00 0.00 98 1016.4
20260508040110 41 293 4.0 7.0 0.00 0.10 0.10 99 1016.4
20260508035607 41 66 3.0 4.0 0.00 0.10 0.10 98 1016.4
20260508035104 41 3 3.0 4.0 0.00 0.10 0.10 98 1016.4
20260508034601 41 342 4.0 7.0 0.00 0.10 0.10 98 1016.2
20260508034058 41 327 5.0 7.0 0.00 0.10 0.10 98 1016.2
20260508033555 41 23 3.0 4.0 0.00 0.10 0.10 98 1016.4
20260508033054 41 64 3.0 3.0 0.00 0.10 0.10 98 1016.4
20260508032549 41 318 6.0 8.0 0.00 0.10 0.10 98 1016.2
20260508032047 41 332 4.0 6.0 0.00 0.10 0.10 98 1016.4
20260508031544 41 296 2.0 4.0 0.00 0.10 0.10 98 1016.6
20260508031040 41 35 2.0 2.0 0.00 0.10 0.10 98 1016.4
20260508030537 41 46 3.0 3.0 0.00 0.10 0.10 98 1016.3
20260508030035 41 300 4.0 8.0 0.00 0.10 0.10 98 1016.2
20260508025530 41 57 1.0 1.0 0.00 0.10 0.10 98 1016.2
20260508025028 41 263 9.0 10.0 0.00 0.10 0.10 98 1016.3
20260508024524 41 55 2.0 6.0 0.00 0.10 0.10 98 1016.1
20260508024021 41 330 5.0 6.0 0.00 0.10 0.10 98 1016.1
20260508023517 41 14 5.0 6.0 0.00 0.10 0.10 98 1016.2
20260508023015 41 317 4.0 4.0 0.00 0.10 0.10 98 1016.2
20260508022510 41 285 4.0 3.0 0.00 0.10 0.10 98 1015.9
20260508022007 41 44 4.0 4.0 0.00 0.10 0.10 98 1016.1
20260508021503 41 285 3.0 4.0 0.00 0.10 0.10 98 1015.9
20260508020959 41 339 6.0 7.0 0.00 0.10 0.10 98 1016.0
20260508020457 41 292 3.0 6.0 0.00 0.10 0.10 98 1016.0
20260508015954 41 305 3.0 3.0 0.00 0.10 0.10 98 1015.5
20260508015452 41 32 3.0 3.0 0.00 0.10 0.10 98 1015.5
20260508014949 40 13 8.0 9.0 0.00 0.10 0.10 98 1015.6
20260508014445 40 302 3.0 6.0 0.00 0.10 0.10 98 1015.9
20260508013941 40 52 1.0 1.0 0.00 0.10 0.10 98 1015.6
20260508013437 40 268 4.0 6.0 0.00 0.10 0.10 98 1015.6
20260508012935 40 331 3.0 3.0 0.00 0.10 0.10 98 1015.3
20260508012432 40 266 4.0 4.0 0.00 0.10 0.10 98 1015.3
20260508011929 40 291 1.0 2.0 0.00 0.10 0.10 98 1015.3
20260508011427 40 218 2.0 3.0 0.00 0.10 0.10 98 1015.4
20260508010924 40 283 2.0 3.0 0.00 0.10 0.10 98 1015.2
20260508010421 40 340 2.0 3.0 0.00 0.10 0.10 98 1015.1
20260508005918 40 338 2.0 2.0 0.00 0.10 0.10 98 1014.7
20260508005415 40 300 4.0 4.0 0.00 0.10 0.10 98 1015.0
20260508004911 40 72 2.0 4.0 0.00 0.10 0.10 98 1014.8
20260508004408 40 324 2.0 3.0 0.00 0.10 0.10 98 1014.7
20260508003904 40 57 1.0 1.0 0.00 0.10 0.10 98 1014.7
20260508003401 40 323 3.0 3.0 0.00 0.10 0.10 98 1014.8
20260508002858 40 352 5.0 7.0 0.00 0.10 0.10 98 1014.8
20260508002355 40 56 3.0 4.0 0.00 0.10 0.10 98 1015.0
20260508001851 40 282 2.0 3.0 0.00 0.10 0.10 98 1014.6
20260508001347 41 59 1.0 1.0 0.00 0.10 0.10 98 1014.6
20260508000844 41 342 3.0 3.0 0.00 0.10 0.10 98 1014.7
20260508000342 41 305 2.0 2.0 0.00 0.10 0.10 98 1015.0
20260507235837 41 183 2.0 2.0 0.00 0.10 0.10 98 1015.0
20260507235334 41 298 5.0 7.0 0.00 0.10 0.10 98 1014.6
20260507234831 40 312 7.0 8.0 0.00 0.10 0.10 98 1015.0
20260507234328 40 300 4.0 4.0 0.00 0.10 0.10 98 1015.0
20260507233824 40 305 6.0 7.0 0.00 0.10 0.10 98 1015.0
20260507233322 41 316 5.0 6.0 0.00 0.10 0.10 98 1014.8
20260507232820 41 37 4.0 6.0 0.00 0.10 0.10 98 1014.8
20260507232316 41 12 3.0 4.0 0.00 0.10 0.10 98 1014.8
20260507231813 41 67 2.0 2.0 0.00 0.10 0.10 98 1014.7
20260507231310 41 68 2.0 3.0 0.00 0.10 0.10 98 1015.1
20260507230806 41 339 6.0 6.0 0.00 0.10 0.10 98 1014.8
20260507230304 41 53 1.0 3.0 0.00 0.10 0.10 98 1015.0
20260507225804 40 263 4.0 7.0 0.00 0.10 0.10 98 1014.8
20260507225300 40 288 3.0 7.0 0.00 0.10 0.10 98 1015.0
20260507224756 40 343 3.0 3.0 0.00 0.10 0.10 98 1014.7
20260507224253 40 3 2.0 2.0 0.00 0.10 0.10 98 1014.8
20260507223749 40 335 5.0 6.0 0.00 0.10 0.10 98 1014.7
20260507223246 40 53 2.0 2.0 0.00 0.10 0.10 98 1014.8
20260507222743 40 53 2.0 2.0 0.00 0.10 0.10 98 1014.7
20260507222239 40 251 3.0 3.0 0.00 0.10 0.10 98 1014.8
20260507221736 41 286 3.0 3.0 0.00 0.10 0.10 98 1014.6
20260507221232 41 276 3.0 4.0 0.00 0.10 0.10 98 1014.6
20260507220729 41 268 4.0 6.0 0.00 0.10 0.10 98 1014.4
20260507220227 41 313 4.0 6.0 0.00 0.10 0.10 98 1014.4
20260507215723 41 292 5.0 6.0 0.00 0.10 0.10 98 1014.3
20260507215221 41 308 4.0 3.0 0.07 0.10 0.10 98 1014.4
20260507214718 41 59 1.0 1.0 0.07 0.10 0.10 98 1014.3
20260507214215 41 55 1.0 1.0 0.00 0.09 0.09 98 1014.3
20260507213710 41 271 3.0 3.0 0.00 0.09 0.09 98 1014.0
20260507213208 41 274 3.0 4.0 0.00 0.09 0.09 98 1014.1
20260507212703 41 257 3.0 3.0 0.00 0.09 0.09 98 1014.1
20260507212200 41 355 4.0 6.0 0.05 0.09 0.09 97 1014.4
20260507211657 41 288 6.0 9.0 0.05 0.09 0.09 97 1014.3
20260507211153 41 280 5.0 7.0 0.00 0.08 0.08 97 1014.1
20260507210650 41 276 6.0 7.0 0.00 0.08 0.08 97 1014.0
20260507210147 42 56 4.0 6.0 0.07 0.08 0.08 97 1014.1
20260507205643 42 327 6.0 9.0 0.07 0.08 0.08 97 1014.0
20260507205140 43 328 3.0 4.0 0.00 0.07 0.07 97 1014.0
20260507204636 43 314 2.0 2.0 0.00 0.07 0.07 97 1014.0
20260507204134 44 269 6.0 6.0 0.00 0.07 0.07 97 1013.7
20260507203632 44 28 2.0 2.0 0.00 0.07 0.07 97 1013.9
20260507203129 44 63 0.0 0.0 0.00 0.07 0.07 97 1013.6
20260507202625 44 287 5.0 6.0 0.00 0.07 0.07 97 1013.8
20260507202121 44 272 4.0 4.0 0.00 0.07 0.07 97 1013.7
20260507201616 44 304 3.0 4.0 0.00 0.07 0.07 97 1013.8
20260507201114 44 284 4.0 4.0 0.00 0.07 0.07 97 1013.9
20260507200609 44 56 1.0 2.0 0.00 0.07 0.07 97 1013.7
20260507200105 45 300 3.0 3.0 0.00 0.07 0.07 97 1013.7
20260507195603 45 275 4.0 4.0 0.00 0.07 0.07 97 1013.5
20260507195100 45 55 0.0 1.0 0.00 0.07 0.07 97 1013.2
20260507194556 45 307 4.0 4.0 0.00 0.07 0.07 97 1013.7
20260507194052 45 303 5.0 6.0 0.00 0.07 0.07 97 1013.8
20260507193549 45 295 4.0 7.0 0.00 0.07 0.07 97 1013.8
20260507193046 45 48 1.0 1.0 0.00 0.07 0.07 97 1013.8
20260507192542 45 84 3.0 4.0 0.00 0.07 0.07 96 1013.9
20260507192039 45 270 5.0 7.0 0.00 0.07 0.07 97 1013.8
20260507191534 46 276 4.0 7.0 0.00 0.07 0.07 96 1014.0
20260507191032 46 282 4.0 4.0 0.00 0.07 0.07 96 1013.9
20260507190529 46 285 4.0 6.0 0.00 0.07 0.07 96 1014.0
20260507190028 46 46 3.0 6.0 0.00 0.07 0.07 96 1014.1
20260507185526 46 40 6.0 9.0 0.00 0.07 0.07 95 1014.3
20260507185022 46 322 5.0 7.0 0.00 0.07 0.07 95 1014.4
20260507184520 47 56 1.0 3.0 0.00 0.07 0.07 95 1014.4
20260507184018 47 294 3.0 6.0 0.00 0.07 0.07 93 1014.1
20260507183513 48 267 4.0 6.0 0.00 0.07 0.07 93 1014.3
20260507183011 48 276 5.0 7.0 0.00 0.07 0.07 93 1014.1
20260507182507 48 268 5.0 6.0 0.00 0.07 0.07 93 1014.0
20260507182003 48 299 9.0 10.0 0.00 0.07 0.07 94 1013.9
20260507181500 48 299 7.0 8.0 0.00 0.07 0.07 95 1013.8
20260507180956 48 326 4.0 6.0 0.00 0.07 0.07 94 1013.9
20260507180453 48 266 5.0 6.0 0.00 0.07 0.07 95 1014.0
20260507175949 48 9 2.0 3.0 0.00 0.07 0.07 95 1014.0
20260507175446 48 287 4.0 4.0 0.00 0.07 0.07 94 1014.0
20260507174944 48 268 3.0 4.0 0.00 0.07 0.07 94 1013.9
20260507174440 49 244 6.0 9.0 0.00 0.07 0.07 95 1013.9
20260507173938 48 354 6.0 8.0 0.00 0.07 0.07 95 1013.9
20260507173435 48 256 5.0 6.0 0.00 0.07 0.07 95 1013.8
20260507172932 48 286 2.0 3.0 0.00 0.07 0.07 94 1014.0
20260507172428 48 306 5.0 7.0 0.00 0.07 0.07 94 1014.1
20260507171924 49 281 4.0 4.0 0.00 0.07 0.07 92 1014.0
20260507171421 50 299 4.0 9.0 0.00 0.07 0.07 93 1013.8
20260507170918 50 266 3.0 6.0 0.00 0.07 0.07 92 1013.9
20260507170415 51 21 4.0 6.0 0.00 0.07 0.07 93 1014.0
20260507165911 50 23 3.0 4.0 0.00 0.07 0.07 94 1014.0
20260507165407 50 299 4.0 4.0 0.00 0.07 0.07 93 1013.8
20260507164903 52 19 4.0 4.0 0.00 0.07 0.07 92 1014.0
20260507164400 52 54 1.0 1.0 0.00 0.07 0.07 96 1013.7
20260507163857 51 276 4.0 4.0 0.00 0.07 0.07 96 1013.9
20260507163354 51 89 0.0 0.0 0.00 0.07 0.07 97 1014.0
20260507162851 50 297 4.0 4.0 0.00 0.07 0.07 96 1014.1
20260507162346 50 287 7.0 9.0 0.00 0.07 0.07 96 1014.0
20260507161844 51 50 3.0 3.0 0.00 0.07 0.07 96 1013.9
20260507161340 50 21 2.0 2.0 0.00 0.07 0.07 97 1014.0
20260507160837 51 50 1.0 2.0 0.00 0.07 0.07 96 1014.0
20260507160332 51 271 5.0 6.0 0.00 0.07 0.07 96 1013.9
20260507155829 51 286 4.0 7.0 0.00 0.07 0.07 96 1013.9
20260507155325 51 334 2.0 2.0 0.00 0.07 0.07 96 1014.1
20260507154822 51 320 3.0 3.0 0.00 0.07 0.07 96 1014.0